Volver al catálogo

GALILEO 23

2C9

ActivoNavegaciónMEO
NORAD 43566·PAYLOAD·🇪🇺 EU

Lanzado Jul 25, 2018 desde Guiana Space Centre

Loading…

Próximos Pases (próximas 24 horas)

TLE

ActualizadoSource: CelesTrak SupGP

Época: Sep 13, 2026, 23:59 UTC

1 43566C 18060C   26256.99979167  .00000000  00000+0  00000+0 0  2561
2 43566  57.1361 339.3875 0003528 273.2845  37.7070  1.70476559    15

Sigue GALILEO 23 en tiempo real con AllMySat

Download on the App Store